Location: *
(46.3500°N, 10.9000°E)
Time: 21:09:26
(UTC+00:00)

A-11 Canister half - Pass Details

Date: 27 April 2021
Orbit: 1526 x 1682 km, 47.3° (Epoch: 13 May)

Event Time Altitude Azimuth Distance (km) Brightness Sun altitude
Rises 12:48:45 0° 232° (SW) 4,810 12.2 52.0°
Reaches altitude 10° 12:51:51 10° 230° (SW) 3,846 11.9 51.7°
Maximum altitude 13:01:34 66° 151° (SSE) 1,786 10.4 50.6°
Drops below altitude 10° 13:11:33 10° 73° (ENE) 3,945 10.9 49.4°
Sets 13:14:45 0° 70° (ENE) 4,939 11.3 49.0°
